Regional Weather Roundup
Issued by NWS

Home | Current Version | Previous Version | Graphics & Text | Print | Product List | Glossary On
Versions: 1 2 3 4 5 6 7 8 9 10 11 12 13 14 15 16 17 18 19 20 21 22 23 24 25 26 27 28 29 30 31 32 33 34 35 36 37 38 39 40 41 42 43 44 45 46 47 48 49 50
000
ASUS43 KMPX 290210
RWRMN
WEATHER ROUNDUP FOR MINNESOTA
NATIONAL WEATHER SERVICE TWIN CITIES/CHANHASSEN MN
900 PM CDT SUN MAY 28 2017


NOTE: "FAIR" INDICATES FEW OR NO CLOUDS BELOW 12,000 FEET WITH NO
SIGNIFICANT WEATHER AND/OR OBSTRUCTIONS TO VISIBILITY. N/A MEANS
CURRENT SKY AND/OR WEATHER CONDITIONS ARE NOT AVAILABLE.

MNZ060>063-068>070-290300-
   Twin Cities Metro

CITY           SKY/WX    TMP DP  RH WIND       PRES   REMARKS
TWIN CITIES    MOCLDY    58  48  69 NW13      29.74R
ST PAUL        LGT RAIN  64  49  57 W16G26    29.73R
CRYSTAL        CLOUDY    55  47  74 NW8       29.73R
BLAINE         TSTM      57  52  82 W14G23    29.73R
LAKEVILLE      CLOUDY    63  46  55 W6        29.73R THUNDER
EDEN PRAIRIE   CLOUDY    61  44  53 NW17G25   29.73R
SOUTH ST PAUL  LGT RAIN  64  46  52 W9        29.72R
LAKE ELMO      FAIR      61  46  59 CALM      29.72S
$$
MNZ001>005-007-008-013>017-022>024-027-028-290300-
   Northwest Minnesota

CITY           SKY/WX    TMP DP  RH WIND       PRES   REMARKS
BEMIDJI        CLOUDY    52  50  92 W6        29.69R
HALLOCK        CLOUDY    55  46  71 NW16      29.75S
ROSEAU         CLOUDY    54  48  82 NW12      29.70S
WARROAD        CLOUDY    55  48  76 NW13      29.69R
THIEF RVR FALL CLOUDY    54  46  76 NW16      29.74S
CROOKSTON      CLOUDY    54  48  82 N15       29.76R
FOSSTON        CLOUDY    50  48  93 NW13G18   29.74R
DETROIT LAKES  MOCLDY    52  50  93 NW14G20   29.76R
MOORHEAD       MOCLDY    54  48  82 NW13      29.79R
PARK RAPIDS    MOCLDY    56  44  64 NW14      29.70R
MAHNOMEN       CLOUDY    52  49  88 NW16G22   29.74R
$$
MNZ006-009>011-018-025>026-290300-
   North Central Minnesota

CITY           SKY/WX    TMP DP  RH WIND       PRES   REMARKS
BAUDETTE       CLOUDY    54  48  80 NW10      29.66R
FLAG ISLAND    PTCLDY    54  48  82 NW16      29.66S
INTL FALLS     CLOUDY    54  49  83 W6        29.63R
WASKISH        CLOUDY    55  50  82 NW9G16    29.67S
BIG FORK       CLOUDY    55  50  82 CALM      29.65S
LONGVILLE      PTCLDY    54  46  76 W5        29.68S
GRAND RAPIDS   CLOUDY    55  49  80 W9        29.68R
CRANE LAKE     CLOUDY    50  50 100 CALM      29.63F
ORR            CLOUDY    55  45  67 W5        29.61S
COOK           CLOUDY    55  48  76 W3        29.63F
WALKER         HVY RAIN  53  47  77 NW10G17   29.69R
$$
MNZ012-019>021-037-290300-
   Northeast Minnesota

CITY           SKY/WX    TMP DP  RH WIND       PRES   REMARKS
DULUTH         PTCLDY    53  46  77 W8        29.64F
ELY            CLOUDY    52  52 100 W7        29.62S
HIBBING        CLOUDY    53  51  93 W3        29.65R
EVELETH        PTCLDY    54  46  74 W5        29.65S
DULUTH HARBOR  CLOUDY    57  52  82 SW9       29.65S
TWO HARBORS    CLOUDY    57  52  82 W5        29.62S
SILVER BAY     CLOUDY    54  52  94 CALM      29.61S
GRAND MARAIS     N/A     42  42 100 CALM      29.60F
G MARAIS ARPRT CLOUDY    48  45  87 CALM      29.61S
$$
MNZ029>031-032-039>041-046>048-054>057-064-290300-
   West Central Minnesota

CITY           SKY/WX    TMP DP  RH WIND       PRES   REMARKS
FERGUS FALLS   CLOUDY    54  46  76 NW14      29.75S
WHEATON        CLEAR     55  46  71 NW14G24   29.81R
MORRIS         PTCLDY    59  48  67 W16G23    29.76R
ALEXANDRIA     MOCLDY    57  47  69 SW6       29.74S
ELBOW LAKE     LGT RAIN  55  49  81 W17G25    29.77R
WADENA         CLOUDY   N/A N/A N/A W5        29.71S
GLENWOOD       PTCLDY    55  45  67 W8        29.75S
APPLETON       PTCLDY    61  45  55 W12       29.79R
BENSON         PTCLDY    57  46  67 W8        29.79R
ORTONVILLE     PTCLDY    63  43  48 NW26G33   29.80R
MADISON        CLEAR     63  48  59 SW10      29.81S
WILLMAR        FAIR      61  45  55 W13       29.78S
$$
MNZ033>034-036-042>043-049>051-058-059-290300-
   Central Minnesota

CITY           SKY/WX    TMP DP  RH WIND       PRES   REMARKS
ST CLOUD       CLOUDY    53  49  86 W5        29.73F
SAUK CENTRE    FAIR      54  47  76 CALM      29.74F
PAYNESVILLE    CLEAR     57  43  60 W5        29.75S
AITKIN         PTCLDY    54  46  76 SW3       29.67S
PINE RIVER     CLEAR     54  48  82 CALM      29.73S
BRAINERD       PTCLDY    54  46  74 W6        29.70F
STAPLES        MOCLDY    55  46  71 W6        29.71S
LONG PRAIRIE   FAIR      50  46  87 S3        29.74S
LITTLE FALLS   PTCLDY    52  48  87 CALM      29.72S
LITCHFIELD     CLEAR     61  46  59 W5        29.76S
BUFFALO        CLOUDY    55  48  76 W5        29.76S
MAPLE LAKE     PTCLDY    55  50  85 NW5       29.75F
HUTCHINSON     CLEAR     60  46  57 W8        29.78R
$$
MNZ037-044-045-052-053-290300-
   East Central Minnesota

CITY           SKY/WX    TMP DP  RH WIND       PRES   REMARKS
PRINCETON      CLOUDY    55  48  76 CALM      29.72F
MORA           PTCLDY    54  50  87 SW6       29.73S
CAMBRIDGE      RAIN      57  46  67 CALM      29.71S
RUSH CITY      MOCLDY    55  49  80 W5        29.72R
MOOSE LAKE     PTCLDY    52  46  82 SW6       29.66S
HINCKLEY       MOCLDY    52  50  93 W8        29.69F
CLOQUET        MOCLDY    52  46  82 W6        29.66F
MCGREGOR       CLEAR     54  46  76 W5        29.67F
$$
MNZ071>073-080-081-089-090-097-098-290300-
   Southwest Minnesota

CITY           SKY/WX    TMP DP  RH WIND       PRES   REMARKS
MONTEVIDEO     PTCLDY    61  43  51 NW6       29.80R
CANBY          PTCLDY    58  48  71 CALM      29.84F
MARSHALL       MOCLDY    59  47  64 W8        29.84R
REDWOOD FALLS  CLOUDY    59  44  57 W8        29.80R
OLIVIA         CLOUDY    55  45  67 W9        29.78S
PIPESTONE      CLOUDY    55  46  71 NW3       29.86F
WINDOM         CLOUDY    55  48  76 W15       29.85S
WORTHINGTON    LGT RAIN  54  49  83 W5        29.88R
JACKSON        HVY RAIN  55  45  67 NW23G38   29.90R
TRACY          CLOUDY    60  47  62 W6        29.83F
SLAYTON        CLOUDY    55  49  81 W9        29.87F
$$
MNZ065>067-074>077-082>085-091>093-290300-
   South Central Minnesota

CITY           SKY/WX    TMP DP  RH WIND       PRES   REMARKS
MANKATO        PTCLDY    63  43  48 W12       29.79R
NEW ULM        CLOUDY    63  43  48 NW16      29.80R
ST JAMES       CLOUDY    64  43  45 W18G26    29.83R
FAIRMONT       CLOUDY    68  38  33 NW35G43   29.83R
GLENCOE        CLOUDY    63  45  52 NW10      29.76R
FARIBAULT      CLOUDY    64  43  45 W15G24    29.75R
OWATONNA       CLOUDY    64  39  39 W23G30    29.76R
WASECA         CLOUDY    63  39  42 NW16      29.78R
ALBERT LEA     CLEAR     70  39  32 W5        29.77S
$$
MNZ078>079-086>088-094>096-290300-
   Southeast Minnesota

CITY           SKY/WX    TMP DP  RH WIND       PRES   REMARKS
ROCHESTER      CLEAR     61  46  57 W6        29.76R
RED WING       CLEAR     64  37  36 NW3       29.71S
STANTON        MOCLDY    63  47  55 CALM      29.71F
DODGE CENTER   CLEAR     63  45  51 W3        29.75S
WINONA         PTCLDY    66  45  45 W3        29.73S
AUSTIN         CLEAR     64  39  39 W8        29.76S
PRESTON        CLEAR     62  41  46 NW7       29.76S
$$
ABBREVIATIONS USED IN REMARKS
   TC - TEMPERATURES IN CELSIUS
  WCI - WIND CHILL INDEX
   HX - HEAT INDEX
  VSB - VISIBILITY
$$



USA.gov is the U.S. government's official web portal to all federal, state and local government web resources and services.